Wind_Speed
21 21 22 22 22 21 19 17 15 13 13 12 12 14 15 13 11 12 17 9 17 6 15 9 10 15 18 15 21 26 10 11 3 7 1 5 6 4 3 32 31 14 39 44 40
21 21 21 22 23 22 21 18 16 15 14 14 14 14 14 14 17 17 9 15 14 11 13 15 14 15 20 21 17 13 9 8 7 7 6 4 12 16 6 29 22 28 37 43 41
22 22 22 22 22 22 22 19 17 17 16 15 14 13 12 14 10 6 7 12 12 14 14 15 15 16 22 23 24 16 15 9 13 19 7 25 20 6 20 10 31 35 41 44 39
22 22 22 22 21 22 21 20 18 18 16 14 12 12 11 9 3 2 4 8 12 14 17 19 19 21 13 13 25 13 24 25 19 17 25 14 23 6 11 15 34 45 53 44 35
23 22 22 22 22 21 21 19 19 18 15 12 11 8 9 5 8 3 6 5 11 17 21 21 13 20 12 12 20 16 14 23 23 25 30 21 28 17 30 16 27 39 46 38 38
23 23 22 22 22 21 19 17 17 17 13 11 8 8 6 5 2 3 5 4 6 16 21 20 12 17 18 19 13 19 20 20 19 14 11 23 26 29 13 12 18 40 41 35 35
24 23 24 23 22 21 18 16 17 12 10 7 6 7 7 12 3 6 7 10 6 14 21 23 20 23 17 9 22 24 10 12 10 9 5 19 13 11 11 15 21 32 36 37 34
26 26 24 23 22 20 16 15 12 7 6 5 0 2 8 3 11 10 6 9 12 11 17 18 16 23 25 19 19 8 8 7 9 8 17 15 10 10 25 21 21 16 27 35 37
25 26 27 24 20 18 13 12 9 3 3 4 0 5 8 6 1 2 8 10 10 11 16 16 19 22 16 5 6 7 7 8 11 15 7 7 15 20 37 27 10 19 21 23 35
28 27 24 23 18 14 10 11 8 4 5 5 5 9 8 10 5 2 5 8 13 11 15 19 19 6 5 3 7 8 8 9 9 12 13 12 15 16 26 31 28 11 17 30 31
28 26 25 19 14 9 5 5 5 2 7 10 11 10 5 2 2 3 6 7 12 16 9 12 3 8 9 10 10 14 15 13 10 12 9 15 18 24 29 28 35 35 33 34 38
25 23 21 17 8 4 6 9 8 7 11 17 23 19 8 5 5 7 5 9 8 8 6 6 11 9 10 13 12 17 16 16 14 14 9 9 13 20 18 27 40 38 30 29 38
24 21 19 11 1 3 4 4 10 9 5 12 13 12 12 6 11 14 10 12 7 8 10 10 11 18 15 12 15 15 11 13 12 19 14 6 4 9 12 14 17 20 22 10 43
23 21 18 3 0 5 8 3 10 8 3 5 9 4 4 1 5 11 3 6 5 9 10 10 17 15 16 16 14 9 10 12 14 10 5 5 4 6 12 8 15 19 13 9 5
23 21 11 3 4 4 8 9 12 4 3 10 8 7 4 10 6 4 2 4 7 11 4 8 11 12 16 13 15 12 10 9 10 9 5 18 3 6 16 7 7 20 9 17 25
21 17 4 2 2 6 13 13 8 2 5 6 7 6 5 8 3 8 5 4 8 6 9 9 19 6 7 12 12 6 7 11 7 2 5 11 2 10 11 17 9 16 27 15 41
20 9 4 8 1 8 12 12 2 4 9 5 7 7 9 7 6 4 3 5 3 2 4 6 10 11 13 9 6 7 4 3 4 5 10 8 7 10 6 21 26 30 40 48 48
14 2 4 4 4 10 8 4 3 13 12 7 5 5 4 7 1 6 6 4 7 6 6 4 9 8 4 6 6 7 7 5 7 5 9 9 8 9 12 19 37 50 56 46 51
8 2 2 7 8 6 7 3 5 9 13 13 10 2 2 8 4 7 5 7 5 9 4 7 6 17 15 16 13 9 7 8 6 9 7 6 9 18 11 9 22 34 34 38 35
10 2 3 9 4 4 3 5 7 14 9 8 5 7 6 11 4 4 1 8 6 8 10 8 5 6 14 17 10 9 5 3 3 7 12 5 11 6 6 13 14 20 34 39 37
8 5 7 7 3 7 1 4 6 15 11 8 7 6 9 9 9 10 7 14 13 13 15 5 3 9 9 4 9 12 3 4 2 3 10 9 7 9 8 7 18 19 41 40 39
4 0 12 7 4 5 4 3 10 13 16 8 5 6 9 11 8 8 8 9 18 14 5 9 4 5 13 18 17 15 12 9 4 8 4 3 6 23 13 19 38 16 40 50 53
10 1 15 16 4 4 3 14 15 10 12 9 10 10 7 5 4 8 9 15 17 10 5 7 4 4 9 9 1 6 12 13 2 3 9 5 5 12 13 15 31 34 40 34 42
7 3 10 24 22 13 8 8 9 16 15 14 7 9 9 9 10 4 6 7 12 11 11 7 3 4 5 11 10 12 22 22 11 6 9 10 12 10 13 15 23 29 43 28 40
6 6 13 6 8 10 13 11 12 9 12 14 6 13 10 5 8 6 12 10 15 14 4 4 4 8 14 17 16 17 19 23 20 11 3 10 11 3 6 11 18 24 32 37 20
5 6 10 8 5 14 10 9 11 10 7 9 9 11 8 4 5 8 7 7 5 8 4 1 5 7 13 17 19 20 18 19 21 19 11 12 15 7 17 23 24 23 27 25 26
8 6 3 10 13 6 5 4 3 3 7 10 5 3 7 10 16 20 21 19 14 8 8 1 2 3 5 10 15 15 14 16 20 19 11 10 5 10 11 14 24 24 24 28 30
Wind_Direction
348 347 347 347 347 347 346 342 339 336 326 317 313 314 314 310 297 286 241 227 211 200 197 203 210 196 207 230 237 241 254 278 26 339 238 19 345 277 165 134 156 191 156 151 155
343 342 342 343 343 344 342 338 331 325 322 319 313 310 312 306 303 278 233 210 216 222 220 201 207 206 227 224 241 223 241 244 135 293 150 209 64 314 239 149 115 124 149 155 154
340 337 337 337 338 339 338 333 329 320 316 314 310 306 307 316 317 297 212 215 222 234 225 200 212 207 228 231 245 245 245 243 197 215 170 137 147 224 345 169 141 147 156 165 167
339 337 335 333 332 334 334 330 326 321 315 313 310 302 302 314 346 327 337 264 244 233 218 209 236 243 226 233 240 235 245 255 252 199 175 159 146 229 345 298 153 154 157 166 166
337 336 335 333 329 329 330 328 324 321 315 313 304 293 302 300 276 253 297 286 230 215 207 206 245 252 217 237 247 247 253 264 274 163 184 159 157 154 174 182 152 154 162 168 162
336 334 334 332 330 327 326 326 323 318 310 311 301 292 282 253 158 301 324 287 227 205 203 202 229 237 228 242 252 257 254 259 269 258 179 134 145 154 215 188 173 161 166 166 165
334 332 330 330 328 325 323 323 322 315 313 317 293 283 243 211 186 243 264 248 248 217 204 201 227 268 256 281 258 273 298 303 278 273 246 128 152 98 119 134 164 164 163 165 169
333 329 327 326 325 321 318 320 324 310 310 319 37 310 262 314 272 238 216 228 231 220 214 212 250 261 271 271 283 299 292 274 285 251 257 166 123 131 130 134 147 160 169 171 175
332 328 325 323 321 315 313 310 317 278 278 285 16 304 276 228 155 190 207 201 204 217 232 219 247 259 272 284 311 282 256 264 265 267 245 204 122 169 153 158 83 173 194 179 182
330 328 324 321 318 311 313 304 302 264 273 274 203 294 254 235 139 216 230 233 194 190 212 231 248 220 264 211 232 253 257 234 244 253 244 220 138 173 165 142 122 287 207 192 198
331 329 325 322 316 305 331 9 334 46 245 233 285 236 312 92 312 206 188 215 199 198 210 216 239 217 227 246 254 269 279 288 279 246 241 202 151 177 168 140 155 190 241 204 195
333 331 329 323 314 236 326 356 11 318 296 270 260 257 275 296 264 162 187 219 198 203 186 239 228 241 223 241 236 254 269 281 288 289 187 228 167 165 168 162 167 186 194 211 187
335 336 333 330 313 148 319 356 343 326 266 284 226 224 226 215 260 156 174 238 195 215 209 221 235 223 237 241 244 247 244 270 278 301 310 235 76 147 194 169 177 169 184 214 182
338 338 336 351 348 319 314 321 331 325 297 240 154 223 141 237 284 133 150 335 271 236 224 228 231 251 224 235 248 257 262 259 268 290 279 26 281 212 183 165 167 166 154 227 256
339 337 337 326 312 14 0 336 328 281 298 142 128 160 208 197 150 130 153 289 273 292 278 257 224 245 245 251 218 250 278 282 283 287 306 295 25 263 158 148 213 143 143 253 259
338 334 342 256 17 8 342 322 301 264 232 136 136 176 173 240 226 138 194 216 304 306 316 298 311 288 261 276 262 270 251 274 295 320 292 268 171 280 171 186 156 132 125 258 251
339 328 315 246 312 4 325 319 246 247 140 141 161 162 204 183 203 133 264 192 224 189 266 275 265 277 291 314 280 261 288 306 296 284 255 266 265 235 266 186 168 168 180 187 211
342 31 46 82 13 352 312 298 267 348 18 40 41 59 338 0 21 143 172 278 296 265 301 293 313 216 256 226 263 253 208 181 229 232 263 250 263 262 251 182 177 179 186 201 194
355 257 302 15 5 346 296 263 46 8 11 356 326 260 254 233 171 37 328 349 302 32 38 4 285 339 325 332 237 255 264 240 240 275 279 274 277 258 249 272 176 184 190 201 208
13 263 285 349 299 256 274 29 70 57 346 343 338 6 354 5 349 176 216 23 27 67 58 345 336 336 337 333 327 187 236 309 288 223 259 287 288 268 267 237 195 201 187 194 201
3 337 358 339 284 260 18 100 41 44 32 15 6 354 355 351 352 343 350 54 24 8 6 40 44 299 334 314 335 337 289 294 262 240 243 264 269 259 247 328 295 198 194 189 188
19 271 8 351 280 256 53 40 27 27 21 6 353 9 28 3 358 346 346 35 36 29 20 9 298 320 293 296 303 300 288 240 191 278 245 209 272 279 320 4 353 233 189 187 195
350 311 34 43 18 17 97 95 65 29 30 14 12 18 358 348 355 356 4 0 50 28 52 354 328 346 320 320 314 327 330 312 263 308 266 255 252 339 16 14 3 3 18 190 173
354 9 14 46 24 33 354 39 73 45 37 12 46 27 23 354 346 313 334 12 30 66 22 355 288 269 262 288 329 317 318 321 312 242 269 267 262 7 358 6 0 6 10 18 173
26 55 67 28 21 55 40 27 39 22 355 44 24 30 26 13 333 3 357 349 341 5 36 35 288 304 296 295 303 298 301 305 306 293 255 286 292 331 3 357 358 10 11 20 75
48 20 50 17 34 70 31 20 30 11 346 12 22 3 2 342 314 320 326 326 330 340 334 344 314 329 299 298 297 284 279 287 291 290 296 299 295 322 19 2 358 352 355 359 0
56 26 300 25 50 51 41 36 356 48 320 21 46 29 316 358 337 313 302 295 295 287 293 147 164 353 276 311 312 287 269 279 280 285 281 288 323 358 9 16 349 334 4 353 347
Height
1523 1519 1516 1513 1509 1506 1504 1501 1498 1496 1494 1492 1491 1489 1486 1484 1483 1481 1478 1481 1483 1486 1488 1491 1493 1496 1500 1500 1500 1500 1505 1505 1502 1498 1503 1496 1502 1503 1493 1498 1504 1504 1504 1513 1519
1521 1518 1515 1511 1508 1505 1502 1499 1497 1494 1492 1490 1488 1487 1485 1482 1479 1476 1477 1477 1480 1484 1487 1489 1492 1495 1497 1496 1496 1495 1500 1495 1494 1497 1501 1503 1501 1491 1491 1494 1504 1507 1512 1517 1521
1520 1516 1513 1510 1506 1503 1500 1497 1495 1492 1490 1488 1486 1484 1482 1480 1478 1472 1472 1475 1478 1482 1485 1488 1491 1493 1494 1493 1491 1490 1491 1484 1484 1484 1496 1504 1503 1511 1510 1496 1499 1506 1510 1516 1521
1518 1514 1511 1507 1504 1501 1498 1494 1492 1490 1488 1486 1484 1483 1481 1481 1480 1473 1474 1475 1477 1480 1482 1485 1486 1490 1490 1489 1485 1488 1480 1478 1475 1481 1491 1501 1504 1506 1510 1507 1499 1501 1506 1514 1519
1516 1512 1508 1505 1501 1498 1495 1492 1490 1487 1485 1484 1482 1481 1480 1480 1474 1473 1474 1473 1473 1476 1478 1482 1485 1485 1486 1483 1481 1480 1476 1473 1471 1475 1475 1492 1496 1501 1496 1502 1505 1507 1510 1514 1520
1514 1510 1506 1502 1498 1495 1492 1490 1487 1485 1483 1482 1480 1480 1480 1480 1474 1473 1473 1472 1472 1474 1476 1480 1480 1481 1481 1480 1478 1474 1472 1469 1469 1471 1470 1482 1492 1501 1499 1503 1509 1509 1513 1515 1520
1512 1508 1504 1500 1496 1492 1489 1487 1484 1482 1481 1479 1479 1478 1478 1473 1473 1473 1473 1472 1472 1473 1475 1477 1478 1482 1479 1477 1474 1472 1474 1468 1466 1466 1468 1474 1496 1497 1497 1501 1511 1512 1513 1518 1521
1510 1506 1501 1497 1493 1489 1487 1484 1482 1480 1480 1479 1478 1478 1473 1471 1470 1471 1470 1471 1473 1474 1475 1477 1479 1480 1479 1477 1474 1475 1474 1485 1467 1465 1465 1471 1498 1502 1496 1504 1511 1517 1519 1520 1521
1507 1502 1498 1494 1490 1487 1484 1482 1480 1479 1479 1478 1479 1479 1474 1470 1469 1469 1470 1471 1473 1474 1476 1477 1479 1478 1477 1480 1488 1480 1497 1485 1475 1462 1463 1465 1503 1502 1493 1502 1515 1522 1522 1524 1523
1503 1499 1494 1491 1488 1484 1482 1480 1479 1478 1478 1477 1478 1481 1470 1469 1468 1468 1469 1469 1472 1474 1477 1478 1477 1478 1479 1487 1507 1497 1488 1481 1478 1461 1459 1464 1483 1500 1504 1503 1503 1528 1527 1523 1525
1500 1495 1490 1487 1485 1483 1481 1478 1480 1479 1477 1472 1471 1468 1466 1466 1467 1467 1468 1468 1470 1473 1476 1473 1481 1486 1483 1480 1479 1478 1478 1479 1464 1452 1456 1460 1478 1486 1500 1503 1504 1515 1522 1523 1523
1497 1492 1487 1484 1482 1483 1482 1481 1482 1482 1475 1468 1467 1467 1467 1467 1466 1466 1469 1470 1468 1473 1472 1478 1484 1475 1474 1474 1476 1476 1479 1475 1459 1448 1453 1456 1472 1476 1482 1489 1492 1492 1505 1516 1518
1495 1490 1485 1482 1481 1482 1482 1482 1481 1480 1476 1463 1462 1464 1465 1467 1464 1464 1467 1467 1467 1471 1471 1479 1473 1469 1470 1472 1474 1474 1478 1473 1471 1452 1449 1451 1481 1479 1481 1485 1490 1487 1499 1512 1509
1494 1488 1483 1481 1484 1481 1481 1482 1481 1479 1483 1460 1459 1462 1463 1465 1465 1464 1466 1469 1465 1469 1467 1469 1466 1466 1470 1471 1469 1484 1462 1460 1461 1468 1490 1454 1500 1482 1481 1484 1487 1492 1491 1504 1514
1492 1487 1483 1482 1481 1481 1482 1482 1480 1480 1493 1456 1458 1460 1461 1464 1464 1465 1466 1468 1469 1466 1465 1469 1463 1463 1465 1463 1460 1469 1459 1462 1462 1467 1472 1462 1488 1469 1472 1488 1486 1480 1486 1499 1503
1490 1486 1483 1482 1481 1481 1481 1480 1480 1489 1485 1455 1456 1459 1462 1462 1461 1465 1467 1469 1467 1466 1463 1463 1455 1456 1456 1453 1453 1454 1460 1464 1466 1475 1499 1474 1482 1473 1480 1466 1478 1480 1473 1483 1493
1488 1485 1482 1482 1482 1481 1481 1480 1488 1488 1446 1459 1457 1456 1458 1461 1459 1462 1466 1470 1475 1481 1480 1465 1461 1454 1455 1461 1452 1457 1473 1505 1509 1506 1497 1473 1480 1470 1450 1453 1456 1463 1470 1460 1478
1485 1483 1484 1483 1482 1481 1482 1483 1489 1462 1461 1454 1455 1457 1461 1457 1458 1462 1467 1473 1464 1467 1476 1482 1486 1459 1451 1459 1465 1464 1473 1503 1516 1514 1493 1473 1485 1461 1442 1447 1454 1456 1456 1461 1463
1484 1484 1483 1482 1481 1482 1483 1487 1485 1475 1474 1471 1463 1463 1463 1458 1462 1467 1470 1473 1469 1471 1484 1486 1477 1460 1458 1459 1455 1466 1476 1463 1484 1481 1490 1478 1459 1442 1438 1439 1446 1456 1463 1462 1470
1483 1483 1482 1484 1483 1483 1484 1480 1479 1482 1480 1476 1478 1470 1475 1471 1471 1473 1470 1470 1471 1473 1473 1482 1495 1471 1463 1460 1449 1456 1456 1483 1481 1506 1505 1484 1473 1469 1445 1440 1438 1442 1449 1453 1464
1485 1486 1485 1483 1483 1483 1484 1488 1483 1483 1483 1483 1483 1482 1482 1483 1483 1482 1478 1485 1479 1478 1479 1481 1489 1486 1477 1472 1476 1472 1469 1468 1474 1481 1491 1499 1478 1441 1439 1440 1435 1422 1430 1440 1448
1486 1485 1485 1483 1484 1479 1486 1486 1487 1486 1486 1486 1484 1483 1490 1489 1491 1489 1488 1486 1488 1485 1493 1492 1495 1502 1489 1472 1470 1472 1474 1469 1488 1490 1478 1483 1477 1425 1436 1437 1431 1415 1418 1425 1433
1487 1486 1487 1480 1490 1487 1484 1489 1493 1494 1497 1496 1493 1495 1494 1496 1501 1494 1491 1490 1491 1494 1502 1501 1503 1511 1499 1481 1470 1476 1467 1466 1462 1470 1481 1488 1474 1444 1441 1441 1443 1436 1434 1427 1430
1493 1490 1491 1491 1494 1494 1493 1492 1496 1499 1501 1501 1500 1498 1501 1504 1499 1499 1496 1493 1494 1497 1501 1501 1506 1511 1515 1500 1495 1493 1482 1475 1472 1480 1478 1467 1462 1456 1448 1446 1446 1441 1436 1432 1432
1497 1500 1500 1504 1501 1501 1501 1505 1505 1509 1505 1504 1502 1505 1509 1513 1510 1505 1505 1502 1499 1499 1501 1506 1512 1508 1501 1496 1494 1492 1489 1484 1482 1474 1477 1467 1462 1458 1449 1446 1448 1449 1448 1449 1456
1504 1506 1505 1504 1504 1505 1509 1513 1515 1515 1512 1510 1513 1512 1513 1515 1515 1514 1513 1512 1509 1505 1504 1505 1514 1512 1509 1501 1495 1491 1485 1483 1478 1469 1465 1463 1462 1454 1445 1443 1447 1450 1451 1457 1465
1507 1508 1507 1508 1509 1512 1518 1518 1517 1516 1515 1514 1515 1517 1516 1514 1514 1513 1511 1510 1510 1511 1511 1511 1515 1518 1517 1508 1503 1499 1485 1483 1475 1467 1465 1471 1465 1457 1454 1451 1453 1453 1455 1458 1462